Погода в Саловке

Россия / Пензенская область     53°06′17″N   44°47′28″E
темп.,
°C
ветер,
м/с
пор.,
м/с
влажн.,
%
обл.,
%
осадки,
мм/ч
давл.,
гПа
погр.,
м
18 апреля, вс
вс1800:00+9сз3391100 6.4 1018125
03:00+9зсз1190100 7.9 1019196
06:00+9ссз229398 0.2 1019199
09:00+9ссв2291100 0.3 1019277
12:00+9сз2387100 0.1 1019262
15:00+10всв4585100 0.3 1020497
18:00+8св3787100 0.2 1020396
21:00+8св4889100 0.2 1020279
19 апреля, пн
пн1900:00+7св4888100 0.0 1020394
03:00+6св5990100 0.3 1020402
06:00+6всв61092100 0.7 1019533
09:00+5всв61089100 0.9 1021626
12:00+5всв61188100 0.3 1021658
15:00+5всв61189100 0.7 1021740
18:00+6всв51188100 0.1 1021650
21:00+6в61291100 0.1 1022757
20 апреля, вт
вт2000:00+6вюв71289100 0.1 1022580
03:00+4в61290100 0.3 1023574
06:00+4вюв71390100 0.6 1024625
09:00+6вюв8147454 0.8 1023817
12:00+5вюв81569100 0.0 1024843
15:00+9вюв91563100 0.0 10211152
18:00+7вюв101762100 0.0 10201068
21:00+6вюв122068100 0.3 1019997
21 апреля, ср
ср2100:00+5юв112072100 1.8 10181084
03:00+4юв132377100 5.9 1016884
06:00+3юв122287100 0.0 1016903
09:00+3юв112090100 0.3 1016846
12:00+4юв101991100 0.0 1017818
15:00+4ююв91792100 0.3 1018773
18:00+4ююв81695100 0.0 1019668
21:00+4ююв71396100 0.1 1021399
22 апреля, чт
чт2200:00+5ююв61197100 0.0 1022419
03:00+5ююв51098100 0.4 1023307
06:00+5ююв5998100 0.3 1024384
09:00+6ююв4897100 0.4 1025304
12:00+10ю4580100 0.1 1025720
15:00+12ю356969 0.9 1024755
18:00+11юв237693 1.3 102566
21:00+9юв1289100 1.7 102677